IRIDIUM 151 (43074 NORAD) Tracking and Keplerian Element Data

This shows tracking and keplerian element data for the satellite.

Feedback or suggestion? Click here.




ElementValue
Catalog43074
NameIRIDIUM 151
Epoch Orbit19695
Epoch Day269.61966764
Epoch Year2021
RAAN322.7598
Inclination86.3975
Eccentricity0.0002371
Argument of Perigee86.4692
Mean Anonmoly273.6775
Mean Motion14.34216151
Decay Rate8.3E-07
L11 43074U 17083E 21269.61966764 .00000083 00000-0 22750-4 0 9993
L22 43074 86.3975 322.7598 0002371 86.4692 273.6775 14.34216151196957

Live tracking and technical data element details for IRIDIUM 151 (NORAD 43074). IRIDIUM 151 can be tracked NOW for your location showing map with azimuth and elevation plus other details from your city location.

Track the satellite on the map from your city or location and see movement details for azimuth, elevation, latitude, longitude, range, height, and movement on the map or in text.







IsCatalogInMostPopularTable: catalog: 43074, numindb: 612
Update: records affected: 1



GetName: 43074 IRIDIUM 151

Hit Count: updated at: Tue, 28 Sep 2021 16:41:09 GMT